This demonstration page uses our WeatherBlox Daily Observations layout. Learn more.

36.19886, -115.1175

Hourly Observations for July 7, 2018

Temp ( °F °C ) Dew Point ( °F °C ) Humidity (%) Winds ( mph kmh ) Pressure ( in mb ) Visibility ( mi km ) Precip ( " mm )
12:53 am 00:53 Clear 96 35.6 49 9.4 20 20 WSW 3 6 29.88 1012 10 16.09344 0 0
1:53 am 01:53 Clear 94 34.4 51 10.6 23 23 W 3 6 29.88 1012 10 16.09344 0 0
2:53 am 02:53 Clear 92 33.3 50 10 24 24 NNW 3 6 29.88 1012 10 16.09344 0 0
3:53 am 03:53 Clear 90 32.2 51 10.6 26 26 Calm 29.88 1012 10 16.09344 0 0
4:53 am 04:53 Clear 91 32.8 51 10.6 26 26 Calm 29.88 1012 10 16.09344 0 0
5:53 am 05:53 Sunny 91 32.8 51 10.6 26 26 NNW 3 6 29.91 1013 10 16.09344 0 0
6:53 am 06:53 Sunny 94 34.4 52 11.1 24 24 Calm 29.94 1014 10 16.09344 0 0
7:53 am 07:53 Sunny 96 35.6 51 10.6 22 22 Calm 29.94 1014 10 16.09344 0 0
8:53 am 08:53 Sunny 98 36.7 53 11.7 22 22 S 12 19 29.94 1014 10 16.09344 0 0
9:53 am 09:53 Sunny 101 38.3 53 11.7 20 20 SSE 17 28 29.94 1014 10 16.09344 0 0
10:09 am 10:09 Sunny 102 38.9 53 11.7 19 19 S 15 24 29.83 1010 10 16.09344 0 0
10:53 am 10:53 Sunny 103 39.4 52 11.1 18 18 SE 15 24 29.94 1014 10 16.09344 0 0
11:53 am 11:53 Sunny 104 40 50 10 16 16 SSE 16 26 29.94 1014 10 16.09344 0 0
12:53 pm 12:53 Sunny 103 39.4 49 9.4 16 16 SSW 12 19 29.91 1013 10 16.09344 0 0
1:53 pm 13:53 Sunny 102 38.9 48 8.9 16 16 S 12 19 29.88 1012 10 16.09344 0 0
2:25 pm 14:25 Sunny with Nearby Thunderstorms 103 39.4 49 9.4 16 16 SSE 6 9 29.74 1007 10 16.09344 0 0
2:44 pm 14:44 Sunny 103 39.4 48 8.9 16 16 S 5 7 29.74 1007 10 16.09344 0 0
2:53 pm 14:53 Sunny with Nearby Thunderstorms 103 39.4 49 9.4 16 16 SSW 7 11 29.85 1011 10 16.09344 0 0
3:37 pm 15:37 Sunny 104 40 49 9.4 16 16 WSW 6 9 29.71 1006 10 16.09344 0 0
3:53 pm 15:53 Sunny 104 40 48 8.9 15 15 W 5 7 29.83 1010 10 16.09344 0 0
4:53 pm 16:53 Sunny 107 41.7 48 8.9 14 14 NNW 7 11 29.83 1010 10 16.09344 0 0
5:53 pm 17:53 Sunny 105 40.6 47 8.3 14 14 NNW 9 15 29.8 1009 10 16.09344 0 0
6:53 pm 18:53 Sunny 102 38.9 49 9.4 17 17 W 16 26 29.8 1009 10 16.09344 0 0
7:53 pm 19:53 Sunny 103 39.4 44 6.7 13 13 W 12 19 29.8 1009 10 16.09344 0 0
8:53 pm 20:53 Clear 99 37.2 49 9.4 18 18 ENE 6 9 29.83 1010 10 16.09344 0 0
9:53 pm 21:53 Clear 99 37.2 51 10.6 20 20 S 13 20 29.83 1010 10 16.09344 0 0
10:53 pm 22:53 Clear 96 35.6 52 11.1 23 23 SSW 12 19 29.83 1010 10 16.09344 0 0
11:53 pm 23:53 Clear 95 35 49 9.4 21 21 SW 8 13 29.85 1011 10 16.09344 0 0

Powered by AerisWeather